Date String (YYYY-MM-DD hh:mm:ss) UTC,Instrument flags,absolute air pressure of the measurement (hPa),sample flow rate (lpm),inlet stack bypass flow (lpm),air temperature of the measurement (°C),ambient temperature measured by the external sensor (°C),aerosol sample conditioner tube jacket temperature (°C),OPC LED temperature (°C),internal box temperature (°C),relative humidity of the measurement (%),span deviation,mass concentration of particles derived from Lorenz-Mie calculation of OPC scattering (μg/m³),mass concentration of particles derived from Lorenz-Mie calculation of OPC scattering (μg/m³),mass concentration of particles derived from Lorenz-Mie calculation of OPC scattering (μg/m³)
DateTimeUTC,F1_M11,P_M11,Q1_M11,Q2_M11,T1_M11,T2_M11,T3_M11,T4_M11,T5_M11,U1_M11,ZSPAN_M11,X2_M11,X0_M11,X1_M11
2023-06-11 01:00:00,SystemResetWarning,0828.6,4.99,000.00,029.7,028.5,000.0,038.2,031.4,26.6,0000.0,0003.95,0010.18,0003.14
2023-06-11 01:01:00,SystemResetWarning,0828.6,4.99,000.00,029.8,028.5,000.0,038.2,031.4,26.2,0000.0,0003.96,0010.09,0003.15
2023-06-11 01:02:00,SystemResetWarning,0828.6,5.00,000.00,029.8,028.5,000.0,038.2,031.4,26.4,0000.0,0003.92,0009.85,0003.15
2023-06-11 01:03:00,SystemResetWarning,0828.6,5.00,000.00,029.8,026.7,000.0,038.2,031.3,25.8,0000.0,0003.85,0009.16,0003.14
2023-06-11 01:04:00,SystemResetWarning,0828.6,5.01,000.00,029.8,025.3,000.0,038.1,031.2,25.6,0000.0,0003.85,0009.40,0003.14
2023-06-11 01:05:00,SystemResetWarning,0828.6,5.01,000.00,029.7,025.3,000.0,038.1,031.1,25.7,0000.0,0003.84,0009.30,0003.13
2023-06-11 01:06:00,SystemResetWarning,0828.7,5.00,000.00,029.6,025.6,000.0,038.1,030.8,25.5,0000.0,0003.85,0009.25,0003.13
2023-06-11 01:07:00,SystemResetWarning,0828.7,5.00,000.00,029.5,026.0,000.0,038.1,030.9,26.1,0000.0,0003.83,0008.69,0003.13
2023-06-11 01:08:00,SystemResetWarning,0828.8,4.99,000.00,029.5,026.4,000.0,038.1,030.9,26.1,0000.0,0003.81,0008.42,0003.12
2023-06-11 01:09:00,SystemResetWarning,0828.8,5.00,000.00,029.5,026.7,000.0,038.1,031.0,26.2,0000.0,0003.81,0008.50,0003.11
2023-06-11 01:10:00,SystemResetWarning,0828.8,5.00,000.00,029.5,027.1,000.0,038.1,031.0,25.4,0000.0,0003.83,0008.33,0003.11
2023-06-11 01:11:00,SystemResetWarning,0828.8,5.00,000.00,029.5,027.3,000.0,038.1,031.1,25.2,0000.0,0003.80,0008.64,0003.10
2023-06-11 01:12:00,SystemResetWarning,0828.8,5.00,000.00,029.6,027.6,000.0,038.1,031.1,24.6,0000.0,0003.76,0009.64,0003.10
2023-06-11 01:13:00,SystemResetWarning,0828.8,5.00,000.00,029.6,027.8,000.0,038.1,031.2,25.3,0000.0,0003.79,0009.78,0003.10
2023-06-11 01:14:00,SystemResetWarning,0828.8,5.00,000.00,029.6,027.9,000.0,038.1,031.2,25.2,0000.0,0003.79,0009.76,0003.11
2023-06-11 01:15:00,SystemResetWarning,0828.8,5.00,000.00,029.6,028.0,000.0,038.1,031.2,25.4,0000.0,0003.77,0009.46,0003.12
2023-06-11 01:16:00,SystemResetWarning,0828.9,5.00,000.00,029.6,028.2,000.0,038.1,031.2,25.4,0000.0,0003.76,0009.08,0003.14
2023-06-11 01:17:00,SystemResetWarning,0829.0,4.99,000.00,029.7,028.3,000.0,038.2,031.3,25.5,0000.0,0003.78,0009.10,0003.14
2023-06-11 01:18:00,SystemResetWarning,0829.0,5.01,000.00,029.7,028.3,000.0,038.2,031.3,25.0,0000.0,0003.78,0009.10,0003.14
2023-06-11 01:19:00,SystemResetWarning,0829.0,5.00,000.00,029.7,028.4,000.0,038.2,031.3,25.2,0000.0,0003.80,0009.11,0003.16
2023-06-11 01:20:00,SystemResetWarning,0829.0,5.00,000.00,029.8,028.5,000.0,038.2,031.4,25.4,0000.0,0003.84,0009.25,0003.18
2023-06-11 01:21:00,SystemResetWarning,0829.1,4.99,000.00,029.8,028.1,000.0,038.2,031.4,25.6,0000.0,0003.82,0009.38,0003.20
2023-06-11 01:22:00,SystemResetWarning,0829.1,4.99,000.00,029.8,026.0,000.0,038.2,031.4,25.2,0000.0,0003.87,0009.34,0003.24
2023-06-11 01:23:00,SystemResetWarning,0829.1,5.01,000.00,029.8,025.2,000.0,038.1,031.3,24.7,0000.0,0003.91,0007.78,0003.28
2023-06-11 01:24:00,SystemResetWarning,0829.1,5.00,000.00,029.7,025.4,000.0,038.1,031.0,25.1,0000.0,0003.98,0007.80,0003.32
2023-06-11 01:25:00,SystemResetWarning,0829.1,5.00,000.00,029.6,025.7,000.0,038.1,030.9,25.6,0000.0,0004.04,0007.96,0003.35
2023-06-11 01:26:00,SystemResetWarning,0829.2,4.99,000.00,029.5,026.1,000.0,038.1,031.0,26.0,0000.0,0004.09,0008.09,0003.38
2023-06-11 01:27:00,SystemResetWarning,0829.2,5.00,000.00,029.5,026.5,000.0,038.1,031.0,27.6,0000.0,0004.13,0008.33,0003.38
2023-06-11 01:28:00,SystemResetWarning,0829.3,5.00,000.00,029.5,026.8,000.0,038.1,031.0,27.7,0000.0,0004.16,0009.11,0003.39
2023-06-11 01:29:00,SystemResetWarning,0829.3,5.01,000.00,029.5,027.1,000.0,038.1,031.0,28.0,0000.0,0004.21,0010.33,0003.41
2023-06-11 01:30:00,SystemResetWarning,0829.4,4.99,000.00,029.5,027.4,000.0,038.1,031.0,27.8,0000.0,0004.23,0010.69,0003.40
2023-06-11 01:31:00,SystemResetWarning,0829.4,5.00,000.00,029.5,027.5,000.0,038.1,031.1,27.6,0000.0,0004.25,0010.66,0003.40
2023-06-11 01:32:00,SystemResetWarning,0829.4,5.00,000.00,029.5,027.7,000.0,038.1,031.1,27.6,0000.0,0004.27,0010.46,0003.39
2023-06-11 01:33:00,SystemResetWarning,0829.4,5.00,000.00,029.6,027.8,000.0,038.1,031.1,27.2,0000.0,0004.21,0010.44,0003.35
2023-06-11 01:34:00,SystemResetWarning,0829.4,5.00,000.00,029.6,027.9,000.0,038.1,031.2,27.9,0000.0,0004.17,0010.52,0003.32
2023-06-11 01:35:00,SystemResetWarning,0829.4,4.99,000.00,029.6,028.0,000.0,038.1,031.2,27.7,0000.0,0004.11,0010.43,0003.28
2023-06-11 01:36:00,SystemResetWarning,0829.4,5.00,000.00,029.6,028.1,000.0,038.1,031.2,27.8,0000.0,0004.06,0010.84,0003.25
2023-06-11 01:37:00,SystemResetWarning,0829.3,5.00,000.00,029.7,028.2,000.0,038.1,031.2,27.6,0000.0,0004.05,0011.63,0003.23
2023-06-11 01:38:00,SystemResetWarning,0829.3,5.00,000.00,029.7,028.3,000.0,038.1,031.3,27.5,0000.0,0004.03,0011.64,0003.22
2023-06-11 01:39:00,SystemResetWarning,0829.4,5.00,000.00,029.7,028.3,000.0,038.2,031.3,27.4,0000.0,0004.04,0011.06,0003.21
2023-06-11 01:40:00,SystemResetWarning,0829.3,5.00,000.00,029.7,028.4,000.0,038.2,031.3,27.4,0000.0,0004.05,0009.93,0003.20
2023-06-11 01:41:00,SystemResetWarning,0829.3,4.99,000.00,029.8,027.5,000.0,038.2,031.4,26.8,0000.0,0004.04,0009.51,0003.21
2023-06-11 01:42:00,SystemResetWarning,0829.3,5.00,000.00,029.8,025.5,000.0,038.1,031.3,26.7,0000.0,0004.03,0009.44,0003.21
2023-06-11 01:43:00,SystemResetWarning,0829.4,5.00,000.00,029.7,025.1,000.0,038.1,031.3,26.8,0000.0,0004.04,0009.44,0003.22
2023-06-11 01:44:00,SystemResetWarning,0829.4,5.01,000.00,029.6,025.3,000.0,038.1,031.0,27.0,0000.0,0004.07,0009.41,0003.22
2023-06-11 01:45:00,SystemResetWarning,0829.3,5.00,000.00,029.5,025.7,000.0,038.1,030.9,27.3,0000.0,0004.09,0009.43,0003.23
2023-06-11 01:46:00,SystemResetWarning,0829.3,5.00,000.00,029.5,026.1,000.0,038.1,030.9,27.2,0000.0,0004.13,0010.04,0003.24
2023-06-11 01:47:00,SystemResetWarning,0829.3,5.00,000.00,029.5,026.5,000.0,038.1,031.0,27.0,0000.0,0004.17,0009.82,0003.25
2023-06-11 01:48:00,SystemResetWarning,0829.4,5.00,000.00,029.5,026.8,000.0,038.1,031.0,27.0,0000.0,0004.20,0009.02,0003.25
2023-06-11 01:49:00,SystemResetWarning,0829.4,5.00,000.00,029.5,027.1,000.0,038.1,031.0,26.7,0000.0,0004.20,0008.90,0003.26
2023-06-11 01:50:00,SystemResetWarning,0829.5,5.00,000.00,029.5,027.4,000.0,038.1,031.0,26.8,0000.0,0004.14,0008.74,0003.27
2023-06-11 01:51:00,SystemResetWarning,0829.5,5.00,000.00,029.5,027.6,000.0,038.1,031.0,27.3,0000.0,0004.10,0008.67,0003.27
2023-06-11 01:52:00,SystemResetWarning,0829.6,5.00,000.00,029.5,027.7,000.0,038.1,031.1,27.2,0000.0,0004.06,0008.57,0003.27
2023-06-11 01:53:00,SystemResetWarning,0829.6,5.00,000.00,029.6,027.9,000.0,038.1,031.1,27.5,0000.0,0004.05,0008.62,0003.27
2023-06-11 01:54:00,SystemResetWarning,0829.5,4.99,000.00,029.6,028.0,000.0,038.1,031.1,27.5,0000.0,0004.01,0008.57,0003.25
2023-06-11 01:55:00,SystemResetWarning,0829.6,4.99,000.00,029.6,028.1,000.0,038.1,031.2,27.4,0000.0,0003.99,0008.76,0003.24
2023-06-11 01:56:00,SystemResetWarning,0829.5,5.00,000.00,029.6,028.1,000.0,038.1,031.2,27.1,0000.0,0004.01,0009.00,0003.23
2023-06-11 01:57:00,SystemResetWarning,0829.6,5.00,000.00,029.6,028.2,000.0,038.1,031.2,26.5,0000.0,0004.01,0009.09,0003.22
2023-06-11 01:58:00,SystemResetWarning,0829.5,5.01,000.00,029.7,028.2,000.0,038.1,031.3,26.2,0000.0,0003.98,0009.00,0003.19
2023-06-11 01:59:00,SystemResetWarning,0829.5,5.01,000.00,029.7,028.3,000.0,038.2,031.3,26.4,0000.0,0003.94,0008.90,0003.17
